Time,TemperatureF,DewpointF,PressureIn,WindDirection,WindDirectionDegrees,WindSpeedMPH,WindSpeedGustMPH,Humidity,HourlyPrecipIn,Conditions,Clouds,dailyrainin,SoftwareType,DateUTC
2013-03-23 00:04:00,39.3,22.2,30.13,NW,315,0.0,0.0,50,0.00,,,0.00,WUHU216HW,2013-03-23 04:04:00,
2013-03-23 00:09:00,39.0,21.9,30.13,NW,315,0.0,0.0,50,0.00,,,0.00,WUHU216HW,2013-03-23 04:09:00,
2013-03-23 00:14:00,39.0,21.9,30.13,NW,315,0.0,0.0,50,0.00,,,0.00,WUHU216HW,2013-03-23 04:14:00,
2013-03-23 00:19:00,39.0,22.3,30.13,NW,315,0.0,0.0,51,0.00,,,0.00,WUHU216HW,2013-03-23 04:19:00,
2013-03-23 00:24:00,39.0,22.3,30.13,NW,315,0.0,0.0,51,0.00,,,0.00,WUHU216HW,2013-03-23 04:24:00,
2013-03-23 00:29:00,39.0,22.3,30.13,NW,315,0.0,0.0,51,0.00,,,0.00,WUHU216HW,2013-03-23 04:29:00,
2013-03-23 00:34:00,39.0,22.3,30.13,NW,315,0.0,0.0,51,0.00,,,0.00,WUHU216HW,2013-03-23 04:34:00,
2013-03-23 00:39:00,39.0,22.3,30.13,NW,315,0.0,0.0,51,0.00,,,0.00,WUHU216HW,2013-03-23 04:39:00,
2013-03-23 00:44:00,39.0,22.3,30.13,NW,315,0.0,0.0,51,0.00,,,0.00,WUHU216HW,2013-03-23 04:44:00,
2013-03-23 00:50:00,39.0,22.3,30.13,NW,315,0.0,0.0,51,0.00,,,0.00,WUHU216HW,2013-03-23 04:50:00,
2013-03-23 00:55:00,39.0,22.8,30.13,NW,315,0.0,0.0,52,0.00,,,0.00,WUHU216HW,2013-03-23 04:55:00,
2013-03-23 01:00:00,39.0,22.8,30.13,NW,315,0.0,0.0,52,0.00,,,0.00,WUHU216HW,2013-03-23 05:00:00,
2013-03-23 01:05:00,38.8,22.6,30.13,NW,315,0.0,0.0,52,0.00,,,0.00,WUHU216HW,2013-03-23 05:05:00,
2013-03-23 01:10:00,38.8,22.6,30.12,NW,315,0.0,0.0,52,0.00,,,0.00,WUHU216HW,2013-03-23 05:10:00,
2013-03-23 01:15:00,38.8,22.6,30.12,NW,315,0.0,0.0,52,0.00,,,0.00,WUHU216HW,2013-03-23 05:15:00,
2013-03-23 01:20:00,38.8,22.6,30.12,NW,315,0.0,0.0,52,0.00,,,0.00,WUHU216HW,2013-03-23 05:20:00,
2013-03-23 01:25:00,38.8,22.6,30.12,NW,315,0.0,0.0,52,0.00,,,0.00,WUHU216HW,2013-03-23 05:25:00,
2013-03-23 01:30:00,38.8,22.6,30.13,NW,315,0.0,0.0,52,0.00,,,0.00,WUHU216HW,2013-03-23 05:30:00,
2013-03-23 01:35:00,38.8,22.6,30.11,NW,315,0.0,0.0,52,0.00,,,0.00,WUHU216HW,2013-03-23 05:35:00,
2013-03-23 01:40:00,38.8,23.0,30.11,NW,315,0.0,0.0,53,0.00,,,0.00,WUHU216HW,2013-03-23 05:40:00,
2013-03-23 01:45:00,38.8,23.0,30.11,NW,315,0.0,0.0,53,0.00,,,0.00,WUHU216HW,2013-03-23 05:45:00,
2013-03-23 01:50:00,38.4,22.7,30.11,NW,315,0.0,0.0,53,0.00,,,0.00,WUHU216HW,2013-03-23 05:50:00,
2013-03-23 01:55:00,38.4,22.7,30.11,NW,315,0.0,0.0,53,0.00,,,0.00,WUHU216HW,2013-03-23 05:55:00,
2013-03-23 02:00:00,38.4,22.7,30.12,NW,315,0.0,0.0,53,0.00,,,0.00,WUHU216HW,2013-03-23 06:00:00,
2013-03-23 02:05:00,38.4,22.7,30.12,NW,315,0.0,0.0,53,0.00,,,0.00,WUHU216HW,2013-03-23 06:05:00,
2013-03-23 02:10:00,38.4,22.7,30.11,NW,315,0.0,0.0,53,0.00,,,0.00,WUHU216HW,2013-03-23 06:10:00,
2013-03-23 02:15:00,38.4,22.7,30.11,NW,315,0.0,0.0,53,0.00,,,0.00,WUHU216HW,2013-03-23 06:15:00,
2013-03-23 02:20:00,38.3,22.5,30.11,NW,315,0.0,0.0,53,0.00,,,0.00,WUHU216HW,2013-03-23 06:20:00,
2013-03-23 02:25:00,38.3,22.5,30.11,NW,315,0.0,0.0,53,0.00,,,0.00,WUHU216HW,2013-03-23 06:25:00,
2013-03-23 02:30:00,38.3,22.5,30.11,NW,315,0.0,0.0,53,0.00,,,0.00,WUHU216HW,2013-03-23 06:30:00,
2013-03-23 02:35:00,38.1,22.4,30.10,NW,315,0.0,0.0,53,0.00,,,0.00,WUHU216HW,2013-03-23 06:35:00,
2013-03-23 02:40:00,38.1,22.4,30.11,NW,315,0.0,0.0,53,0.00,,,0.00,WUHU216HW,2013-03-23 06:40:00,
2013-03-23 02:45:00,38.1,22.8,30.11,NW,315,0.0,0.0,54,0.00,,,0.00,WUHU216HW,2013-03-23 06:45:00,
2013-03-23 02:50:00,37.9,22.6,30.11,NW,315,0.0,0.0,54,0.00,,,0.00,WUHU216HW,2013-03-23 06:50:00,
2013-03-23 02:55:00,37.9,22.6,30.11,NW,315,0.0,0.0,54,0.00,,,0.00,WUHU216HW,2013-03-23 06:55:00,
2013-03-23 03:00:00,37.9,23.1,30.10,NW,315,0.0,0.0,55,0.00,,,0.00,WUHU216HW,2013-03-23 07:00:00,
2013-03-23 03:05:00,37.9,23.1,30.11,NW,315,0.0,0.0,55,0.00,,,0.00,WUHU216HW,2013-03-23 07:05:00,
2013-03-23 03:10:00,37.9,23.1,30.10,NW,315,0.0,0.0,55,0.00,,,0.00,WUHU216HW,2013-03-23 07:10:00,
2013-03-23 03:15:00,37.9,23.5,30.10,NW,315,0.0,0.0,56,0.00,,,0.00,WUHU216HW,2013-03-23 07:15:00,
2013-03-23 03:20:00,37.9,23.5,30.09,NW,315,0.0,0.0,56,0.00,,,0.00,WUHU216HW,2013-03-23 07:20:00,
2013-03-23 03:25:00,37.9,23.5,30.10,NW,315,0.0,0.0,56,0.00,,,0.00,WUHU216HW,2013-03-23 07:25:00,
2013-03-23 03:30:00,37.9,23.5,30.10,NW,315,0.0,0.0,56,0.00,,,0.00,WUHU216HW,2013-03-23 07:30:00,
2013-03-23 03:35:00,37.9,23.5,30.10,NW,315,0.0,0.0,56,0.00,,,0.00,WUHU216HW,2013-03-23 07:35:00,
2013-03-23 03:40:00,37.9,23.5,30.10,NW,315,0.0,0.0,56,0.00,,,0.00,WUHU216HW,2013-03-23 07:40:00,
2013-03-23 03:45:00,37.9,23.5,30.09,NW,315,0.0,0.0,56,0.00,,,0.00,WUHU216HW,2013-03-23 07:45:00,
2013-03-23 03:50:00,37.9,23.5,30.09,NW,315,0.0,0.0,56,0.00,,,0.00,WUHU216HW,2013-03-23 07:50:00,
2013-03-23 03:55:00,37.9,23.5,30.10,NW,315,0.0,0.0,56,0.00,,,0.00,WUHU216HW,2013-03-23 07:55:00,
2013-03-23 04:00:00,37.9,23.5,30.09,NW,315,0.0,0.0,56,0.00,,,0.00,WUHU216HW,2013-03-23 08:00:00,
2013-03-23 04:05:00,37.9,23.5,30.09,NW,315,0.0,0.0,56,0.00,,,0.00,WUHU216HW,2013-03-23 08:05:00,
2013-03-23 04:10:00,37.9,23.9,30.09,NW,315,0.0,0.0,57,0.00,,,0.00,WUHU216HW,2013-03-23 08:10:00,
2013-03-23 04:15:00,37.9,23.5,30.08,NW,315,0.0,0.0,56,0.00,,,0.00,WUHU216HW,2013-03-23 08:15:00,
2013-03-23 04:20:00,37.9,23.5,30.08,NW,315,0.0,0.0,56,0.00,,,0.00,WUHU216HW,2013-03-23 08:20:00,
2013-03-23 04:25:00,37.9,23.9,30.08,NW,315,0.0,0.0,57,0.00,,,0.00,WUHU216HW,2013-03-23 08:25:00,
2013-03-23 04:30:00,37.9,23.9,30.08,NW,315,0.0,0.0,57,0.00,,,0.00,WUHU216HW,2013-03-23 08:30:00,
2013-03-23 04:35:00,37.9,23.9,30.07,NW,315,0.0,0.0,57,0.00,,,0.00,WUHU216HW,2013-03-23 08:35:00,
2013-03-23 04:40:00,37.9,23.9,30.07,NW,315,0.0,0.0,57,0.00,,,0.00,WUHU216HW,2013-03-23 08:40:00,
2013-03-23 04:45:00,37.9,23.9,30.08,NW,315,0.0,0.0,57,0.00,,,0.00,WUHU216HW,2013-03-23 08:45:00,
2013-03-23 04:50:00,37.9,24.4,30.08,NW,315,0.0,0.0,58,0.00,,,0.00,WUHU216HW,2013-03-23 08:50:00,
2013-03-23 04:55:00,37.9,24.4,30.08,NW,315,0.0,0.0,58,0.00,,,0.00,WUHU216HW,2013-03-23 08:55:00,
2013-03-23 05:00:00,38.1,24.5,30.08,NW,315,0.0,0.0,58,0.00,,,0.00,WUHU216HW,2013-03-23 09:00:00,
2013-03-23 05:05:00,37.9,24.4,30.08,NW,315,0.0,0.0,58,0.00,,,0.00,WUHU216HW,2013-03-23 09:05:00,
2013-03-23 05:10:00,38.1,24.5,30.08,NW,315,0.0,0.0,58,0.00,,,0.00,WUHU216HW,2013-03-23 09:10:00,
2013-03-23 05:15:00,38.1,24.5,30.08,NW,315,0.0,0.0,58,0.00,,,0.00,WUHU216HW,2013-03-23 09:15:00,
2013-03-23 05:20:00,37.9,24.4,30.08,NW,315,0.0,0.0,58,0.00,,,0.00,WUHU216HW,2013-03-23 09:20:00,
2013-03-23 05:25:00,38.1,24.5,30.08,NW,315,0.0,0.0,58,0.00,,,0.00,WUHU216HW,2013-03-23 09:25:00,
2013-03-23 05:30:00,38.1,24.5,30.08,NW,315,0.0,0.0,58,0.00,,,0.00,WUHU216HW,2013-03-23 09:30:00,
2013-03-23 05:35:00,38.1,24.5,30.08,NW,315,0.0,0.0,58,0.00,,,0.00,WUHU216HW,2013-03-23 09:35:00,
2013-03-23 05:40:00,37.9,24.4,30.08,NW,315,0.0,0.0,58,0.00,,,0.00,WUHU216HW,2013-03-23 09:40:00,
2013-03-23 05:45:00,37.9,24.8,30.08,NW,315,0.0,0.0,59,0.00,,,0.00,WUHU216HW,2013-03-23 09:45:00,
2013-03-23 05:50:00,37.9,24.8,30.08,NW,315,0.0,0.0,59,0.00,,,0.00,WUHU216HW,2013-03-23 09:50:00,
2013-03-23 05:55:00,37.9,24.8,30.08,NW,315,0.0,0.0,59,0.00,,,0.00,WUHU216HW,2013-03-23 09:55:00,
2013-03-23 06:00:00,37.9,24.8,30.08,NW,315,0.0,0.0,59,0.00,,,0.00,WUHU216HW,2013-03-23 10:00:00,
2013-03-23 06:05:00,37.9,25.2,30.08,NW,315,0.0,0.0,60,0.00,,,0.00,WUHU216HW,2013-03-23 10:05:00,
2013-03-23 06:10:00,37.9,25.2,30.07,NW,315,0.0,0.0,60,0.00,,,0.00,WUHU216HW,2013-03-23 10:10:00,
2013-03-23 06:15:00,37.9,25.2,30.07,NW,315,0.0,0.0,60,0.00,,,0.00,WUHU216HW,2013-03-23 10:15:00,
2013-03-23 06:20:00,37.9,25.2,30.07,NW,315,0.0,0.0,60,0.00,,,0.00,WUHU216HW,2013-03-23 10:20:00,
2013-03-23 06:25:00,37.9,25.2,30.08,NW,315,0.0,0.0,60,0.00,,,0.00,WUHU216HW,2013-03-23 10:25:00,
2013-03-23 06:30:00,37.9,25.2,30.09,NW,315,0.0,0.0,60,0.00,,,0.00,WUHU216HW,2013-03-23 10:30:00,
2013-03-23 06:35:00,37.9,25.2,30.09,NW,315,0.0,0.0,60,0.00,,,0.00,WUHU216HW,2013-03-23 10:35:00,
2013-03-23 06:40:00,37.7,25.1,30.10,NW,315,0.0,0.0,60,0.00,,,0.00,WUHU216HW,2013-03-23 10:40:00,
2013-03-23 06:45:00,37.7,25.1,30.10,NW,315,0.0,0.0,60,0.00,,,0.00,WUHU216HW,2013-03-23 10:45:00,
2013-03-23 06:50:00,37.7,25.5,30.10,NW,315,0.0,0.0,61,0.00,,,0.00,WUHU216HW,2013-03-23 10:50:00,
2013-03-23 06:55:00,37.7,25.5,30.11,NW,315,0.0,0.0,61,0.00,,,0.00,WUHU216HW,2013-03-23 10:55:00,
2013-03-23 07:00:00,37.7,25.5,30.11,NW,315,0.0,0.0,61,0.00,,,0.00,WUHU216HW,2013-03-23 11:00:00,
2013-03-23 07:05:00,37.7,25.8,30.11,NW,315,0.0,0.0,62,0.00,,,0.00,WUHU216HW,2013-03-23 11:05:00,
2013-03-23 07:10:00,37.5,25.7,30.11,NW,315,0.0,0.0,62,0.00,,,0.00,WUHU216HW,2013-03-23 11:10:00,
2013-03-23 07:15:00,37.5,25.7,30.12,NW,315,0.0,0.0,62,0.00,,,0.00,WUHU216HW,2013-03-23 11:15:00,
2013-03-23 07:20:00,37.4,25.5,30.11,NW,315,0.0,0.0,62,0.00,,,0.00,WUHU216HW,2013-03-23 11:20:00,
2013-03-23 07:25:00,37.4,26.3,30.11,NW,315,0.0,0.0,64,0.00,,,0.00,WUHU216HW,2013-03-23 11:25:00,
2013-03-23 07:30:00,37.4,26.6,30.11,NW,315,0.0,0.0,65,0.00,,,0.00,WUHU216HW,2013-03-23 11:30:00,
2013-03-23 07:35:00,37.2,26.5,30.10,WNW,293,0.0,0.0,65,0.00,,,0.00,WUHU216HW,2013-03-23 11:35:00,
2013-03-23 07:40:00,37.2,26.8,30.10,WNW,293,0.0,0.0,66,0.00,,,0.00,WUHU216HW,2013-03-23 11:40:00,
2013-03-23 07:45:00,37.2,26.8,30.10,WNW,293,0.0,0.0,66,0.00,,,0.00,WUHU216HW,2013-03-23 11:45:00,
2013-03-23 07:50:00,37.2,27.2,30.10,WNW,293,0.0,0.0,67,0.00,,,0.00,WUHU216HW,2013-03-23 11:50:00,
2013-03-23 07:55:00,37.0,27.4,30.11,WNW,293,0.0,0.0,68,0.00,,,0.00,WUHU216HW,2013-03-23 11:55:00,
2013-03-23 08:00:00,37.0,27.4,30.11,WNW,293,0.0,0.0,68,0.00,,,0.00,WUHU216HW,2013-03-23 12:00:00,
2013-03-23 08:05:00,37.0,27.8,30.11,WNW,293,0.0,0.0,69,0.00,,,0.00,WUHU216HW,2013-03-23 12:05:00,
2013-03-23 08:10:00,37.0,28.2,30.11,WNW,293,0.0,0.0,70,0.00,,,0.00,WUHU216HW,2013-03-23 12:10:00,
2013-03-23 08:15:00,37.0,28.2,30.11,WNW,293,0.0,0.0,70,0.00,,,0.00,WUHU216HW,2013-03-23 12:15:00,
2013-03-23 08:20:00,37.2,28.4,30.11,WNW,293,0.0,0.0,70,0.00,,,0.00,WUHU216HW,2013-03-23 12:20:00,
2013-03-23 08:25:00,37.2,28.7,30.11,WNW,293,0.0,0.0,71,0.00,,,0.00,WUHU216HW,2013-03-23 12:25:00,
2013-03-23 08:30:00,37.2,28.7,30.11,WNW,293,0.0,0.0,71,0.00,,,0.00,WUHU216HW,2013-03-23 12:30:00,
2013-03-23 08:35:00,37.2,28.7,30.11,WNW,293,0.0,0.0,71,0.00,,,0.00,WUHU216HW,2013-03-23 12:35:00,
2013-03-23 08:40:00,37.2,29.3,30.11,WNW,293,0.0,0.0,73,0.00,,,0.00,WUHU216HW,2013-03-23 12:40:00,
2013-03-23 08:45:00,37.2,29.3,30.11,WNW,293,0.0,0.0,73,0.00,,,0.00,WUHU216HW,2013-03-23 12:45:00,
2013-03-23 08:50:00,37.4,29.3,30.11,WNW,293,0.0,0.0,73,0.00,,,0.00,WUHU216HW,2013-03-23 12:50:00,
2013-03-23 08:56:00,37.4,29.8,30.11,WNW,293,0.0,0.0,74,0.00,,,0.00,WUHU216HW,2013-03-23 12:56:00,
2013-03-23 09:01:00,37.5,30.3,30.12,WNW,293,0.0,0.0,75,0.00,,,0.00,WUHU216HW,2013-03-23 13:01:00,
2013-03-23 09:06:00,37.5,30.3,30.12,WNW,293,0.0,0.0,75,0.00,,,0.00,WUHU216HW,2013-03-23 13:06:00,
2013-03-23 09:11:00,37.5,30.3,30.12,WNW,293,0.0,0.0,75,0.00,,,0.00,WUHU216HW,2013-03-23 13:11:00,
2013-03-23 09:16:00,37.5,30.3,30.13,WNW,293,0.0,0.0,75,0.00,,,0.00,WUHU216HW,2013-03-23 13:16:00,
2013-03-23 09:21:00,37.5,30.5,30.12,WNW,293,0.0,0.0,75,0.00,,,0.00,WUHU216HW,2013-03-23 13:21:00,
2013-03-23 09:26:00,37.7,30.5,30.13,WNW,293,0.0,0.0,75,0.00,,,0.00,WUHU216HW,2013-03-23 13:26:00,
2013-03-23 09:31:00,37.9,30.7,30.12,WNW,293,0.0,0.0,75,0.00,,,0.00,WUHU216HW,2013-03-23 13:31:00,
2013-03-23 09:36:00,37.9,30.7,30.12,WNW,293,0.0,0.0,75,0.00,,,0.00,WUHU216HW,2013-03-23 13:36:00,
2013-03-23 09:41:00,38.1,30.8,30.12,WNW,293,0.0,0.0,75,0.00,,,0.00,WUHU216HW,2013-03-23 13:41:00,
2013-03-23 09:46:00,38.3,31.0,30.12,WNW,293,0.0,0.0,75,0.00,,,0.00,WUHU216HW,2013-03-23 13:46:00,
2013-03-23 09:51:00,38.3,31.0,30.12,WNW,293,0.0,0.0,75,0.00,,,0.00,WUHU216HW,2013-03-23 13:51:00,
2013-03-23 09:56:00,38.4,31.2,30.12,WNW,293,0.0,0.0,75,0.00,,,0.00,WUHU216HW,2013-03-23 13:56:00,
2013-03-23 10:01:00,38.6,31.3,30.12,WNW,293,0.0,0.0,75,0.00,,,0.00,WUHU216HW,2013-03-23 14:01:00,
2013-03-23 10:06:00,38.4,31.2,30.13,WNW,293,0.0,0.0,75,0.00,,,0.00,WUHU216HW,2013-03-23 14:06:00,
2013-03-23 10:11:00,38.8,31.5,30.13,WNW,293,0.0,0.0,75,0.00,,,0.00,WUHU216HW,2013-03-23 14:11:00,
2013-03-23 10:16:00,38.8,31.5,30.13,WNW,293,0.0,0.0,75,0.00,,,0.00,WUHU216HW,2013-03-23 14:16:00,
2013-03-23 10:21:00,39.0,31.7,30.13,WNW,293,0.0,0.0,75,0.00,,,0.00,WUHU216HW,2013-03-23 14:21:00,
2013-03-23 10:26:00,39.0,31.7,30.14,WNW,293,0.0,0.0,75,0.00,,,0.00,WUHU216HW,2013-03-23 14:26:00,
2013-03-23 10:31:00,39.0,32.0,30.13,WNW,293,0.0,0.0,76,0.00,,,0.00,WUHU216HW,2013-03-23 14:31:00,
2013-03-23 10:37:00,39.0,32.0,30.13,WNW,293,0.0,0.0,76,0.00,,,0.00,WUHU216HW,2013-03-23 14:37:00,
2013-03-23 10:42:00,39.0,32.0,30.13,WNW,293,0.0,0.0,76,0.00,,,0.00,WUHU216HW,2013-03-23 14:42:00,
2013-03-23 10:47:00,39.0,32.0,30.13,WNW,293,0.0,0.0,76,0.00,,,0.00,WUHU216HW,2013-03-23 14:47:00,
2013-03-23 10:52:00,39.0,32.0,30.13,WNW,293,0.0,0.0,76,0.00,,,0.00,WUHU216HW,2013-03-23 14:52:00,
2013-03-23 10:57:00,39.3,32.4,30.13,WNW,293,0.0,0.0,76,0.00,,,0.00,WUHU216HW,2013-03-23 14:57:00,
2013-03-23 11:02:00,39.3,32.7,30.13,WNW,293,0.0,0.0,77,0.00,,,0.00,WUHU216HW,2013-03-23 15:02:00,
2013-03-23 11:07:00,39.3,32.7,30.13,WNW,293,0.0,0.0,77,0.00,,,0.00,WUHU216HW,2013-03-23 15:07:00,
2013-03-23 11:12:00,39.3,32.7,30.13,WNW,293,0.0,0.0,77,0.00,,,0.00,WUHU216HW,2013-03-23 15:12:00,
2013-03-23 11:17:00,39.5,32.9,30.13,WNW,293,0.0,0.0,77,0.00,,,0.00,WUHU216HW,2013-03-23 15:17:00,
2013-03-23 11:22:00,39.7,33.0,30.13,WNW,293,0.0,0.0,77,0.00,,,0.00,WUHU216HW,2013-03-23 15:22:00,
2013-03-23 11:27:00,39.9,33.2,30.12,WNW,293,0.0,0.0,77,0.00,,,0.00,WUHU216HW,2013-03-23 15:27:00,
2013-03-23 11:32:00,39.9,33.2,30.12,WNW,293,0.0,0.0,77,0.00,,,0.00,WUHU216HW,2013-03-23 15:32:00,
2013-03-23 11:37:00,39.9,33.2,30.12,WNW,293,0.0,0.0,77,0.00,,,0.00,WUHU216HW,2013-03-23 15:37:00,
2013-03-23 11:42:00,40.4,33.7,30.12,WNW,293,0.0,0.0,77,0.00,,,0.00,WUHU216HW,2013-03-23 15:42:00,
2013-03-23 11:47:00,40.6,33.9,30.11,WNW,293,0.0,0.0,77,0.00,,,0.00,WUHU216HW,2013-03-23 15:47:00,
2013-03-23 11:52:00,40.8,34.2,30.11,WNW,293,0.0,0.0,77,0.00,,,0.00,WUHU216HW,2013-03-23 15:52:00,
2013-03-23 11:57:00,41.5,34.8,30.11,WNW,293,0.0,0.0,77,0.00,,,0.00,WUHU216HW,2013-03-23 15:57:00,
2013-03-23 12:02:00,41.7,34.6,30.11,WNW,293,0.0,0.0,76,0.00,,,0.00,WUHU216HW,2013-03-23 16:02:00,
2013-03-23 12:07:00,42.4,35.3,30.11,WSW,248,0.0,0.0,76,0.00,,,0.00,WUHU216HW,2013-03-23 16:07:00,
2013-03-23 12:12:00,43.1,36.0,30.11,SSW,203,0.0,0.0,76,0.00,,,0.00,WUHU216HW,2013-03-23 16:12:00,
2013-03-23 12:17:00,43.7,36.2,30.10,SSW,203,0.0,0.0,75,0.00,,,0.00,WUHU216HW,2013-03-23 16:17:00,
2013-03-23 12:22:00,44.4,36.9,30.10,SSW,203,0.0,0.0,75,0.00,,,0.00,WUHU216HW,2013-03-23 16:22:00,
2013-03-23 12:27:00,45.1,37.3,30.10,SSW,203,0.0,0.0,74,0.00,,,0.00,WUHU216HW,2013-03-23 16:27:00,
2013-03-23 12:32:00,45.6,37.5,30.10,SSW,203,0.0,0.0,73,0.00,,,0.00,WUHU216HW,2013-03-23 16:32:00,
2013-03-23 12:37:00,46.5,38.0,30.10,SSW,203,0.0,0.0,72,0.00,,,0.00,WUHU216HW,2013-03-23 16:37:00,
2013-03-23 12:42:00,46.9,38.3,30.10,SSW,203,0.0,0.0,72,0.00,,,0.00,WUHU216HW,2013-03-23 16:42:00,
2013-03-23 12:48:00,47.6,39.0,30.09,SSW,203,0.0,0.0,72,0.00,,,0.00,WUHU216HW,2013-03-23 16:48:00,
2013-03-23 12:53:00,48.0,38.6,30.10,South,180,0.0,0.0,70,0.00,,,0.00,WUHU216HW,2013-03-23 16:53:00,
2013-03-23 12:58:00,48.2,38.0,30.09,NW,315,0.0,0.0,68,0.00,,,0.00,WUHU216HW,2013-03-23 16:58:00,
2013-03-23 13:03:00,48.0,37.5,30.09,NW,315,0.0,0.0,67,0.00,,,0.00,WUHU216HW,2013-03-23 17:03:00,
2013-03-23 13:08:00,48.3,37.8,30.09,NW,315,0.0,0.0,67,0.00,,,0.00,WUHU216HW,2013-03-23 17:08:00,
2013-03-23 13:13:00,48.0,37.1,30.09,NW,315,0.0,0.0,66,0.00,,,0.00,WUHU216HW,2013-03-23 17:13:00,
2013-03-23 13:18:00,48.2,37.3,30.09,NW,315,0.0,0.0,66,0.00,,,0.00,WUHU216HW,2013-03-23 17:18:00,
2013-03-23 13:23:00,48.3,37.4,30.08,NW,315,0.0,0.0,66,0.00,,,0.00,WUHU216HW,2013-03-23 17:23:00,
2013-03-23 13:28:00,48.9,38.0,30.08,WNW,293,0.0,0.0,66,0.00,,,0.00,WUHU216HW,2013-03-23 17:28:00,
2013-03-23 13:33:00,49.1,37.7,30.08,WNW,293,0.0,0.0,65,0.00,,,0.00,WUHU216HW,2013-03-23 17:33:00,
2013-03-23 13:38:00,49.2,37.9,30.08,WNW,293,0.0,0.0,65,0.00,,,0.00,WUHU216HW,2013-03-23 17:38:00,
2013-03-23 13:43:00,49.6,38.3,30.08,WNW,293,0.0,0.0,65,0.00,,,0.00,WUHU216HW,2013-03-23 17:43:00,
2013-03-23 13:48:00,50.1,38.8,30.08,SW,225,0.0,0.0,65,0.00,,,0.00,WUHU216HW,2013-03-23 17:48:00,
2013-03-23 13:53:00,50.7,39.3,30.08,SW,225,0.0,0.0,65,0.00,,,0.00,WUHU216HW,2013-03-23 17:53:00,
2013-03-23 13:58:00,51.2,39.8,30.08,NW,315,0.0,0.0,65,0.00,,,0.00,WUHU216HW,2013-03-23 17:58:00,
2013-03-23 14:03:00,51.4,39.2,30.08,NW,315,0.0,0.0,63,0.00,,,0.00,WUHU216HW,2013-03-23 18:03:00,
2013-03-23 14:08:00,51.4,39.2,30.07,NW,315,0.0,0.0,63,0.00,,,0.00,WUHU216HW,2013-03-23 18:08:00,
2013-03-23 14:13:00,51.6,39.3,30.07,NW,315,0.0,0.0,63,0.00,,,0.00,WUHU216HW,2013-03-23 18:13:00,
2013-03-23 14:18:00,52.1,40.2,30.07,NW,315,0.0,0.0,64,0.00,,,0.00,WUHU216HW,2013-03-23 18:18:00,
2013-03-23 14:23:00,52.5,40.5,30.07,NW,315,0.0,0.0,64,0.00,,,0.00,WUHU216HW,2013-03-23 18:23:00,
2013-03-23 14:28:00,53.2,40.9,30.07,NW,315,0.0,0.0,63,0.00,,,0.00,WUHU216HW,2013-03-23 18:28:00,
2013-03-23 14:33:00,53.4,40.7,30.07,NW,315,0.0,0.0,62,0.00,,,0.00,WUHU216HW,2013-03-23 18:33:00,
2013-03-23 14:38:00,53.4,40.3,30.07,West,270,0.0,0.0,61,0.00,,,0.00,WUHU216HW,2013-03-23 18:38:00,
2013-03-23 14:43:00,53.4,40.3,30.07,West,270,0.0,0.0,61,0.00,,,0.00,WUHU216HW,2013-03-23 18:43:00,
2013-03-23 14:48:00,53.4,40.3,30.06,WSW,248,0.0,0.0,61,0.00,,,0.00,WUHU216HW,2013-03-23 18:48:00,
2013-03-23 14:53:00,53.6,40.4,30.06,SW,225,0.0,0.0,61,0.00,,,0.00,WUHU216HW,2013-03-23 18:53:00,
2013-03-23 14:58:00,53.7,40.2,30.06,NNW,338,0.0,0.0,60,0.00,,,0.00,WUHU216HW,2013-03-23 18:58:00,
2013-03-23 15:03:00,53.9,40.8,30.06,NNW,338,0.0,0.0,61,0.00,,,0.00,WUHU216HW,2013-03-23 19:03:00,
2013-03-23 15:08:00,54.5,41.3,30.05,NNW,338,0.0,0.0,61,0.00,,,0.00,WUHU216HW,2013-03-23 19:08:00,
2013-03-23 15:13:00,55.2,41.9,30.06,WNW,293,0.0,0.0,61,0.00,,,0.00,WUHU216HW,2013-03-23 19:13:00,
2013-03-23 15:18:00,55.5,41.4,30.05,NNW,338,0.0,0.0,59,0.00,,,0.00,WUHU216HW,2013-03-23 19:18:00,
2013-03-23 15:23:00,55.9,41.6,30.05,NW,315,0.0,0.0,59,0.00,,,0.00,WUHU216HW,2013-03-23 19:23:00,
2013-03-23 15:28:00,55.4,40.7,30.05,NW,315,0.0,0.0,58,0.00,,,0.00,WUHU216HW,2013-03-23 19:28:00,
2013-03-23 15:33:00,55.2,40.6,30.05,West,270,0.0,0.0,58,0.00,,,0.00,WUHU216HW,2013-03-23 19:33:00,
2013-03-23 15:38:00,55.5,41.4,30.05,NNW,338,0.0,0.0,59,0.00,,,0.00,WUHU216HW,2013-03-23 19:38:00,
2013-03-23 15:43:00,55.7,42.0,30.04,WNW,293,0.0,0.0,60,0.00,,,0.00,WUHU216HW,2013-03-23 19:43:00,
2013-03-23 15:48:00,55.9,41.7,30.03,NW,315,0.0,0.0,59,0.00,,,0.00,WUHU216HW,2013-03-23 19:48:00,
2013-03-23 15:53:00,56.1,41.9,30.04,NW,315,0.0,0.0,59,0.00,,,0.00,WUHU216HW,2013-03-23 19:53:00,
2013-03-23 15:58:00,56.3,41.6,30.04,West,270,0.0,0.0,58,0.00,,,0.00,WUHU216HW,2013-03-23 19:58:00,
2013-03-23 16:03:00,56.3,41.6,30.03,NE,45,0.0,0.0,58,0.00,,,0.00,WUHU216HW,2013-03-23 20:03:00,
2013-03-23 16:08:00,56.3,41.6,30.03,NNW,338,0.0,0.0,58,0.00,,,0.00,WUHU216HW,2013-03-23 20:08:00,
2013-03-23 16:13:00,56.4,41.8,30.04,NW,315,0.0,0.0,58,0.00,,,0.00,WUHU216HW,2013-03-23 20:13:00,
2013-03-23 16:18:00,56.4,41.8,30.03,NE,45,0.0,0.0,58,0.00,,,0.00,WUHU216HW,2013-03-23 20:18:00,
2013-03-23 16:23:00,56.4,41.8,30.03,NW,315,0.0,0.0,58,0.00,,,0.00,WUHU216HW,2013-03-23 20:23:00,
2013-03-23 16:28:00,56.4,41.8,30.03,WNW,293,0.0,0.0,58,0.00,,,0.00,WUHU216HW,2013-03-23 20:28:00,
2013-03-23 16:33:00,56.3,42.1,30.03,NE,45,0.0,0.0,59,0.00,,,0.00,WUHU216HW,2013-03-23 20:33:00,
2013-03-23 16:38:00,56.4,42.3,30.03,NW,315,0.0,0.0,59,0.00,,,0.00,WUHU216HW,2013-03-23 20:38:00,
2013-03-23 16:43:00,56.3,42.1,30.04,NNW,338,1.7,1.7,59,0.00,,,0.00,WUHU216HW,2013-03-23 20:43:00,
2013-03-23 16:48:00,55.7,41.6,30.03,NNE,23,0.0,1.7,59,0.00,,,0.00,WUHU216HW,2013-03-23 20:48:00,
2013-03-23 16:53:00,55.7,42.0,30.03,NNE,23,0.0,0.0,60,0.00,,,0.00,WUHU216HW,2013-03-23 20:53:00,
2013-03-23 16:58:00,55.5,41.9,30.03,NNW,338,0.0,6.7,60,0.00,,,0.00,WUHU216HW,2013-03-23 20:58:00,
2013-03-23 17:03:00,55.5,42.2,30.02,NNW,338,0.0,6.7,61,0.00,,,0.00,WUHU216HW,2013-03-23 21:03:00,
2013-03-23 17:08:00,55.9,42.6,30.02,NW,315,0.0,0.0,61,0.00,,,0.00,WUHU216HW,2013-03-23 21:08:00,
2013-03-23 17:13:00,55.9,42.2,30.02,NNW,338,0.0,0.0,60,0.00,,,0.00,WUHU216HW,2013-03-23 21:13:00,
2013-03-23 17:18:00,56.1,42.4,30.02,NW,315,0.0,0.0,60,0.00,,,0.00,WUHU216HW,2013-03-23 21:18:00,
2013-03-23 17:23:00,56.3,42.6,30.02,NW,315,0.0,0.0,60,0.00,,,0.00,WUHU216HW,2013-03-23 21:23:00,
2013-03-23 17:29:00,56.1,42.4,30.02,NW,315,0.0,0.0,60,0.00,,,0.00,WUHU216HW,2013-03-23 21:29:00,
2013-03-23 17:34:00,56.1,42.4,30.02,NE,45,0.0,0.0,60,0.00,,,0.00,WUHU216HW,2013-03-23 21:34:00,
2013-03-23 17:39:00,56.3,42.6,30.02,NE,45,0.0,0.0,60,0.00,,,0.00,WUHU216HW,2013-03-23 21:39:00,
2013-03-23 17:44:00,56.4,42.8,30.02,NW,315,0.0,0.0,60,0.00,,,0.00,WUHU216HW,2013-03-23 21:44:00,
2013-03-23 17:49:00,56.4,42.8,30.02,NE,45,0.0,0.0,60,0.00,,,0.00,WUHU216HW,2013-03-23 21:49:00,
2013-03-23 17:54:00,56.4,42.8,30.02,NE,45,0.0,0.0,60,0.00,,,0.00,WUHU216HW,2013-03-23 21:54:00,
2013-03-23 17:59:00,56.3,42.1,30.02,NE,45,0.0,0.0,59,0.00,,,0.00,WUHU216HW,2013-03-23 21:59:00,
2013-03-23 18:04:00,56.1,41.9,30.02,West,270,0.0,0.0,59,0.00,,,0.00,WUHU216HW,2013-03-23 22:04:00,
2013-03-23 18:09:00,55.9,42.2,30.02,West,270,0.0,0.0,60,0.00,,,0.00,WUHU216HW,2013-03-23 22:09:00,
2013-03-23 18:14:00,55.5,41.9,30.02,NW,315,0.0,0.0,60,0.00,,,0.00,WUHU216HW,2013-03-23 22:14:00,
2013-03-23 18:19:00,55.0,41.3,30.02,NW,315,0.0,0.0,60,0.00,,,0.00,WUHU216HW,2013-03-23 22:19:00,
2013-03-23 18:24:00,54.6,41.0,30.02,NW,315,0.0,0.0,60,0.00,,,0.00,WUHU216HW,2013-03-23 22:24:00,
2013-03-23 18:29:00,54.3,40.7,30.02,NNW,338,0.0,0.0,60,0.00,,,0.00,WUHU216HW,2013-03-23 22:29:00,
2013-03-23 18:34:00,53.7,40.6,30.02,NW,315,0.0,0.0,61,0.00,,,0.00,WUHU216HW,2013-03-23 22:34:00,
2013-03-23 18:39:00,53.7,40.6,30.02,NW,315,0.0,0.0,61,0.00,,,0.00,WUHU216HW,2013-03-23 22:39:00,
2013-03-23 18:44:00,53.7,40.6,30.02,NW,315,0.0,0.0,61,0.00,,,0.00,WUHU216HW,2013-03-23 22:44:00,
2013-03-23 18:49:00,53.4,40.3,30.03,WNW,293,0.0,0.0,61,0.00,,,0.00,WUHU216HW,2013-03-23 22:49:00,
2013-03-23 18:54:00,53.2,40.1,30.03,WNW,293,0.0,0.0,61,0.00,,,0.00,WUHU216HW,2013-03-23 22:54:00,
2013-03-23 18:59:00,52.8,40.1,30.03,WNW,293,0.0,0.0,62,0.00,,,0.00,WUHU216HW,2013-03-23 22:59:00,
2013-03-23 19:04:00,52.7,40.0,30.03,WNW,293,0.0,0.0,62,0.00,,,0.00,WUHU216HW,2013-03-23 23:04:00,
2013-03-23 19:09:00,52.5,39.8,30.02,WNW,293,0.0,0.0,62,0.00,,,0.00,WUHU216HW,2013-03-23 23:09:00,
2013-03-23 19:14:00,52.1,39.4,30.03,WNW,293,0.0,0.0,62,0.00,,,0.00,WUHU216HW,2013-03-23 23:14:00,
2013-03-23 19:19:00,51.8,39.5,30.03,NW,315,0.0,0.0,63,0.00,,,0.00,WUHU216HW,2013-03-23 23:19:00,
2013-03-23 19:24:00,51.6,39.3,30.03,NNW,338,0.0,0.0,63,0.00,,,0.00,WUHU216HW,2013-03-23 23:24:00,
2013-03-23 19:29:00,51.4,39.2,30.03,NNW,338,0.0,0.0,63,0.00,,,0.00,WUHU216HW,2013-03-23 23:29:00,
2013-03-23 19:34:00,51.0,38.8,30.03,NNW,338,0.0,0.0,63,0.00,,,0.00,WUHU216HW,2013-03-23 23:34:00,
2013-03-23 19:39:00,50.7,38.9,30.03,NNW,338,0.0,0.0,64,0.00,,,0.00,WUHU216HW,2013-03-23 23:39:00,
2013-03-23 19:44:00,50.7,38.5,30.03,NNW,338,0.0,0.0,63,0.00,,,0.00,WUHU216HW,2013-03-23 23:44:00,
2013-03-23 19:49:00,50.7,38.9,30.02,NNW,338,0.0,0.0,64,0.00,,,0.00,WUHU216HW,2013-03-23 23:49:00,
2013-03-23 19:54:00,50.5,38.7,30.01,NNW,338,0.0,0.0,64,0.00,,,0.00,WUHU216HW,2013-03-23 23:54:00,
2013-03-23 19:59:00,50.3,38.5,30.02,NNW,338,0.0,0.0,64,0.00,,,0.00,WUHU216HW,2013-03-23 23:59:00,
2013-03-23 20:04:00,50.3,38.5,30.02,NNW,338,0.0,0.0,64,0.00,,,0.00,WUHU216HW,2013-03-24 00:04:00,
2013-03-23 20:09:00,50.1,38.4,30.02,NNW,338,0.0,0.0,64,0.00,,,0.00,WUHU216HW,2013-03-24 00:09:00,
2013-03-23 20:14:00,49.8,38.0,30.03,NNW,338,0.0,0.0,64,0.00,,,0.00,WUHU216HW,2013-03-24 00:14:00,
2013-03-23 20:19:00,49.8,38.4,30.03,NNW,338,0.0,0.0,65,0.00,,,0.00,WUHU216HW,2013-03-24 00:19:00,
2013-03-23 20:24:00,49.6,38.3,30.03,NNW,338,0.0,0.0,65,0.00,,,0.00,WUHU216HW,2013-03-24 00:24:00,
2013-03-23 20:29:00,49.6,37.9,30.04,NNW,338,0.0,0.0,64,0.00,,,0.00,WUHU216HW,2013-03-24 00:29:00,
2013-03-23 20:34:00,49.2,37.9,30.03,NNW,338,0.0,0.0,65,0.00,,,0.00,WUHU216HW,2013-03-24 00:34:00,
2013-03-23 20:39:00,49.1,37.7,30.03,NNW,338,0.0,0.0,65,0.00,,,0.00,WUHU216HW,2013-03-24 00:39:00,
2013-03-23 20:44:00,48.9,37.6,30.03,NNW,338,0.0,0.0,65,0.00,,,0.00,WUHU216HW,2013-03-24 00:44:00,
2013-03-23 20:49:00,48.7,37.4,30.03,NNW,338,0.0,0.0,65,0.00,,,0.00,WUHU216HW,2013-03-24 00:49:00,
2013-03-23 20:54:00,48.3,37.1,30.02,NNW,338,0.0,0.0,65,0.00,,,0.00,WUHU216HW,2013-03-24 00:54:00,
2013-03-23 20:59:00,48.2,36.9,30.02,NNW,338,0.0,0.0,65,0.00,,,0.00,WUHU216HW,2013-03-24 00:59:00,
2013-03-23 21:04:00,48.0,36.7,30.03,NNW,338,0.0,0.0,65,0.00,,,0.00,WUHU216HW,2013-03-24 01:04:00,
2013-03-23 21:09:00,47.8,36.4,30.02,NNW,338,0.0,0.0,65,0.00,,,0.00,WUHU216HW,2013-03-24 01:09:00,
2013-03-23 21:14:00,47.4,36.6,30.02,NNW,338,0.0,0.0,66,0.00,,,0.00,WUHU216HW,2013-03-24 01:14:00,
2013-03-23 21:19:00,47.3,36.4,30.01,NNW,338,0.0,0.0,66,0.00,,,0.00,WUHU216HW,2013-03-24 01:19:00,
2013-03-23 21:24:00,47.1,36.3,30.00,NNW,338,0.0,0.0,66,0.00,,,0.00,WUHU216HW,2013-03-24 01:24:00,
2013-03-23 21:29:00,46.9,36.1,30.01,NNW,338,0.0,0.0,66,0.00,,,0.00,WUHU216HW,2013-03-24 01:29:00,
2013-03-23 21:34:00,46.7,36.3,30.01,NNW,338,0.0,0.0,67,0.00,,,0.00,WUHU216HW,2013-03-24 01:34:00,
2013-03-23 21:39:00,46.5,36.1,30.02,NNW,338,0.0,0.0,67,0.00,,,0.00,WUHU216HW,2013-03-24 01:39:00,
2013-03-23 21:44:00,46.4,36.0,30.02,NNW,338,0.0,0.0,67,0.00,,,0.00,WUHU216HW,2013-03-24 01:44:00,
2013-03-23 21:49:00,46.2,36.2,30.01,NNW,338,0.0,0.0,68,0.00,,,0.00,WUHU216HW,2013-03-24 01:49:00,
2013-03-23 21:54:00,46.0,36.0,30.01,NNW,338,0.0,0.0,68,0.00,,,0.00,WUHU216HW,2013-03-24 01:54:00,
2013-03-23 21:59:00,45.6,35.7,30.01,NNW,338,0.0,0.0,68,0.00,,,0.00,WUHU216HW,2013-03-24 01:59:00,
2013-03-23 22:04:00,45.5,35.5,30.01,NNW,338,0.0,0.0,68,0.00,,,0.00,WUHU216HW,2013-03-24 02:04:00,
2013-03-23 22:09:00,45.1,35.1,29.99,NNW,338,0.0,0.0,68,0.00,,,0.00,WUHU216HW,2013-03-24 02:09:00,
2013-03-23 22:14:00,44.9,35.3,29.99,NNW,338,0.0,0.0,69,0.00,,,0.00,WUHU216HW,2013-03-24 02:14:00,
2013-03-23 22:19:00,44.9,35.3,29.99,NNW,338,0.0,0.0,69,0.00,,,0.00,WUHU216HW,2013-03-24 02:19:00,
2013-03-23 22:24:00,44.4,35.2,30.00,SE,135,0.0,0.0,69,0.00,,,0.00,WUHU216HW,2013-03-24 02:24:00,
2013-03-23 22:29:00,44.4,35.2,30.01,SSE,158,0.0,0.0,70,0.00,,,0.00,WUHU216HW,2013-03-24 02:29:00,
2013-03-23 22:34:00,44.4,35.5,30.01,SSE,158,0.0,0.0,71,0.00,,,0.00,WUHU216HW,2013-03-24 02:34:00,
2013-03-23 22:39:00,44.4,35.9,30.01,SSE,158,0.0,0.0,72,0.00,,,0.00,WUHU216HW,2013-03-24 02:39:00,
2013-03-23 22:44:00,44.6,36.1,30.00,South,180,0.0,0.0,72,0.00,,,0.00,WUHU216HW,2013-03-24 02:44:00,
2013-03-23 22:49:00,44.7,36.6,29.99,SSE,158,0.0,0.0,73,0.00,,,0.00,WUHU216HW,2013-03-24 02:49:00,
2013-03-23 22:54:00,44.7,36.6,29.99,SE,135,0.0,0.0,73,0.00,,,0.00,WUHU216HW,2013-03-24 02:54:00,
2013-03-23 22:59:00,44.7,36.6,29.99,SE,135,0.0,0.0,73,0.00,,,0.00,WUHU216HW,2013-03-24 02:59:00,
2013-03-23 23:04:00,44.7,36.9,29.98,SSE,158,0.0,4.6,74,0.00,,,0.00,WUHU216HW,2013-03-24 03:04:00,
2013-03-23 23:09:00,44.9,37.1,29.98,SSE,158,0.0,4.6,74,0.00,,,0.00,WUHU216HW,2013-03-24 03:09:00,
2013-03-23 23:14:00,44.9,37.1,29.98,SSE,158,0.0,0.0,74,0.00,,,0.00,WUHU216HW,2013-03-24 03:14:00,
2013-03-23 23:19:00,44.9,37.1,29.98,SW,225,0.0,0.0,74,0.00,,,0.00,WUHU216HW,2013-03-24 03:19:00,
2013-03-23 23:24:00,44.9,37.1,29.98,SSE,158,0.0,0.0,74,0.00,,,0.00,WUHU216HW,2013-03-24 03:24:00,
2013-03-23 23:29:00,45.1,37.3,29.98,South,180,0.6,0.6,74,0.00,,,0.00,WUHU216HW,2013-03-24 03:29:00,
2013-03-23 23:34:00,45.1,37.3,29.97,SSE,158,0.0,3.3,74,0.00,,,0.00,WUHU216HW,2013-03-24 03:34:00,
2013-03-23 23:39:00,45.1,36.9,29.98,SSE,158,0.0,4.2,73,0.00,,,0.00,WUHU216HW,2013-03-24 03:39:00,
2013-03-23 23:44:00,45.3,37.1,29.99,SSE,158,0.0,4.2,73,0.00,,,0.00,WUHU216HW,2013-03-24 03:44:00,
2013-03-23 23:49:00,45.3,37.1,29.99,South,180,0.0,0.0,73,0.00,,,0.00,WUHU216HW,2013-03-24 03:49:00,
2013-03-23 23:54:00,45.3,37.1,29.98,SE,135,0.0,0.0,73,0.00,,,0.00,WUHU216HW,2013-03-24 03:54:00,
2013-03-23 23:59:00,45.3,37.1,29.98,SE,135,0.0,0.0,73,0.00,,,0.00,WUHU216HW,2013-03-24 03:59:00,